Regional Weather Roundup
Issued by NWS Kansas City/Pleasant Hill, MO

Home | Current Version | Previous Version | Graphics & Text | Print | Product List | Glossary Off
Versions: 1 2 3 4 5 6 7 8 9 10 11 12 13 14 15 16 17 18 19 20 21 22 23 24 25 26 27 28 29 30 31 32 33 34 35 36 37 38 39 40 41 42 43 44 45 46 47 48 49 50

000
ASUS43 KEAX 251504
RWREAX

WEATHER ROUNDUP FOR EASTERN KANSAS AND NORTHWEST MISSOURI
NATIONAL WEATHER SERVICE KANSAS CITY/PLEASANT HILL MO
1000 AM CDT MON MAY 25 2015

KSZ040-057-103>105-MOZ028-029-037-043-251600-
...KANSAS CITY METROPOLITAN AREA...

CITY           SKY/WX    TMP DP  RH WIND       PRES   REMARKS
K.C. INTL      MOSUNNY   66  62  87 S15       29.88F
K.C. DOWNTOWN  MOSUNNY   69  61  75 SE8       29.88S
LEES SUMMIT    PTSUNNY   67  61  81 S9        29.91F
OLATHE - IXD   SUNNY     67  61  81 SE12      29.91R
OLATHE - OJC   SUNNY     67  62  84 SE10      29.90F
LAWRENCE       SUNNY     68  61  78 SE12      29.88S

$$

MOZ001>008-011>017-020>025-030>033-038>040-044>046-053-054-251600-
...NORTHERN AND CENTRAL MISSOURI...

CITY           SKY/WX    TMP DP  RH WIND       PRES   REMARKS
ST. JOSEPH     MOSUNNY   68  61  78 S12       29.85R
MOSBY          PTSUNNY   68  59  73 SE10      29.90S
WARRENSBURG    MOSUNNY   64  61  88 E6        29.94F
WHITEMAN AFB   NOT AVBL
CLINTON        DRZL/FOG  64  64 100 MISG      29.98F VSB 3/4
SEDALIA        CLOUDY    66  62  87 SW8       30.00R FOG
WARSAW         NOT AVBL
CHILLICOTHE      N/A     69  62  78 S8        29.92F
KIRKSVILLE     CLOUDY    68  63  84 W10       29.96R

$$

MOZ041-047>049-056>058-063>065-088>090-097-251600-
...EASTERN AND SOUTHERN MISSOURI...

CITY           SKY/WX    TMP DP  RH WIND       PRES   REMARKS
ST. LOUIS INTL PTSUNNY   75  61  61 W14G22    30.02R
SPIRIT OF STL  PTSUNNY   73  63  70 W13G21    30.01R
COLUMBIA       PTSUNNY   67  61  81 SW8       29.99F
JEFFERSON CITY PTSUNNY   69  61  75 S8        30.00S
ROLLA          PTSUNNY   71  64  78 SW9       30.01R
OSAGE BEACH    CLOUDY    70  63  78 SW7       30.00F
SPRINGFIELD    MOSUNNY   72  66  81 S10       29.98S
BRANSON        PTSUNNY   72  66  83 SE14      30.02S
JOPLIN         PTSUNNY   73  67  81 S10       29.95S
WEST PLAINS    PTSUNNY   73  66  78 S10       30.04R

$$

IAZ060-094-KSZ022-034>040-054-083-096-NEZ052-066-093-251600-
...KANSAS...SOUTHEAST NEBRASKA AND IOWA...

CITY           SKY/WX    TMP DP  RH WIND       PRES   REMARKS
TOPEKA         SUNNY     68  61  78 SE13      29.86S
MANHATTAN      CLOUDY    68  61  78 S7        29.84S
EMPORIA        CLOUDY    67  59  75 SE12      29.87F
CHANUTE        PTSUNNY   69  66  90 SE8       29.90F
WICHITA        CLOUDY    67  63  87 SE17      29.82F
OMAHA          PTSUNNY   66  59  78 S8        29.82R
LINCOLN        MOSUNNY   67  58  72 SW7       29.82F
FALLS CITY     MOSUNNY   70  59  68 S14G25    29.81R
LAMONI         CLOUDY    69  60  73 SE10G21   29.82F
DES MOINES     PTSUNNY   69  61  75 SW18G25   29.82F

$$



USA.gov is the U.S. government's official web portal to all federal, state and local government web resources and services.